COSMOS 2251 DEB, 35836

Orbit data source: Space-Track

COSMOS 2251 DEB, 35836 is space debris in LEO originally from a launch on Wed, 16 Jun 1993 UTC launched from the Plesetsk Missile And Space Complex (PKMTR). The debris from Iridium 33, an American commercial communications satellite, has been tracked extensively since its accidental collision with the defunct Russian satellite Cosmos 2251 in 2009. This event, occurring at high speed in low Earth orbit (LEO), generated thousands of pieces of space debris, significantly increasing the risk of further collisions. The Iridium 33 debris cloud has impacted space traffic management and orbital debris mitigation strategies, making it a subject of ongoing study in space situational awareness.

Loading next visibility...
Identifier
35836, 1993-036ATJ
Orbit
LEO
Country
Flag of CISCIS
Related business
Manufacturer
Unknown
Mission
Spacecraft
Bus & Motor
Unknown
Mass
Unknown
Launch date (UTC)
1993-06-16 (33 years ago)
Launch vehicle
Unknown
Launch site
Plesetsk Missile And Space Complex (PKMTR)
Object type
Payload
Rocket body
Debris
Shape & HBR
Unknown shape, 0.1 m
Radar Cross Section
Small (<0.1 m²)

Expand to show TLE details & history
Last TLE update: 5 hours ago

TLE from 5 hours ago
0 COSMOS 2251 DEB
1 35836U 93036ATJ 26123.77644454  .00011448  00000-0  17134-2 0  9997
2 35836  74.0315 256.1772 0021189 281.8330  78.0467 14.74599670656116
Epoch: 2026-05-03T18:38Z
TLE epoch observation values (Epoch: 2026-05-03T18:38:04.808Z)
Latitude
0.00001°
Longitude
114.98203°
Altitude
646.027 km
Speed
7.537 km/s
True Right ascension
17h 04m 42s
True Declination
0° 00' 00"
Sunlit
Object was in full shadow at epoch
Visualization orbit readout
Latitude
Unknown
Longitude
Unknown
Altitude
Unknown
Speed
Unknown
Apparent Right ascension
Unknown
Apparent Declination
Unknown
Sunlit
N/A
Visualization observer readout
Local Sidereal Time
07:38:43
Azimuth
Unknown
Elevation
Unknown
Doppler factor
Unknown
Orbital elements
Apogee altitude
658.883 km
Perigee altitude
629.125 km
Semi-major axis
7,022.141 km
Eccentricity
0.00212
Inclination
74.0315°
RAAN
256.1772°
Arg. of periapsis
281.833°
True anomaly
78.28437°
Mean anomaly
78.0467°
Eccentric anomaly
78.16552°
Mean motion
3.68841 °/min
Orbital period
97.6 mins
BSTAR
0.0017134
Loading maneuver chart data...
Computing Atmospheric mass density...

Documentation

Showing up to 5 results
|